Regional Weather Roundup
Issued by NWS

Home | Current Version | Previous Version | Text Only | Print | Product List | Glossary On
Versions: 1 2 3 4 5 6 7 8 9 10 11 12 13 14 15 16 17 18 19 20 21 22 23 24 25 26 27 28 29 30 31 32 33 34 35 36 37 38 39 40 41 42 43 44 45 46 47 48 49 50
000
ASUS46 KSTO 271504
RWRCA

NORTHERN AND CENTRAL CA REGIONAL WEATHER ROUNDUP
NATIONAL WEATHER SERVICE SACRAMENTO CA
800 AM PDT WED AUG 27 2014

NOTE: FAIR INDICATES FEW OR NO CLOUDS BELOW 12,000 FEET WITH NO
SIGNIFICANT WEATHER AND/OR OBSTRUCTIONS TO VISIBILITY.

CAZ001-003-271600-
NORTHWEST AREA

CITY           SKY/WX    TMP DP  RH WIND       PRES   REMARKS
CRESCENT CITY  FOG       54  54 100 CALM      30.06R VSB 1/4
UKIAH          SUNNY     59  50  72 CALM      30.05S
$$

CAZ006-505>513-271600-
BAY AREA

CITY           SKY/WX    TMP DP  RH WIND       PRES   REMARKS
SANTA ROSA     CLOUDY    58  56  93 CALM      30.05R FOG
SAN RAFAEL     N/A       58  MM  MM MISG
NAPA           SUNNY     58  56  93 CALM      30.05R
CONCORD        SUNNY     64  56  75 W3        30.04R
OAKLAND CITY   N/A       61  MM  MM MISG
OAKLAND        CLOUDY    64  59  83 NE3       30.06R
SAN FRAN CITY  N/A       61  MM  85 MISG
SAN FRAN ARPT  MOSUNNY   64  60  87 W5        30.05S
LIVERMORE      SUNNY     64  56  75 CALM      30.05R
HAYWARD        SUNNY     65  59  81 NE3       30.05R
REDWOOD CITY   N/A       MM  MM  MM MISG
MOFFETT ARPT   SUNNY     65  58  78 CALM      30.06R
SAN JOSE ARPT  SUNNY     62  55  77 CALM      30.06R
$$
CAZ034-037-514>518-271600-
CENTRAL COAST

CITY           SKY/WX    TMP DP  RH WIND       PRES   REMARKS
WATSONVILLE    SUNNY     61  53  75 CALM      30.07R
SALINAS        SUNNY     57  53  86 CALM      30.05R
MONTEREY       SUNNY     59  53  80 CALM      30.06R
SAN LUIS OBISP SUNNY     57  52  83 CALM      30.04S
SANTA MARIA    SUNNY     60  54  80 CALM      30.04S
$$
CAZ015-016-271600-
NORTHERN SACRAMENTO VALLEY

CITY           SKY/WX    TMP DP  RH WIND       PRES   REMARKS
REDDING        SUNNY     70  57  63 CALM      30.04R
RED BLUFF      SUNNY     70  56  61 CALM      30.05R
OROVILLE       SUNNY     71  52  50 CALM      30.06R
$$
CAZ016>018-271600-
SOUTHERN SACRAMENTO VALLEY

CITY           SKY/WX    TMP DP  RH WIND       PRES   REMARKS
AUBURN         SUNNY     72  50  46 E8        30.08R
BEALE AFB      SUNNY     69  54  57 N5        30.03R
LINCOLN        FAIR      68  50  52 S5        30.02S
MARYSVILLE     SUNNY     67  53  61 CALM      30.04R
SAC INTL ARPT  SUNNY     64  56  75 SE8       30.02R
MATHER AIRPORT SUNNY     68  54  60 CALM      30.03S
DOWNTOWN SAC   N/A       67  MM  MM MISG
SAC EXEC ARPT  SUNNY     65  57  75 S7        30.03R
VACAVILLE      SUNNY     65  53  65 CALM      30.04R
TRAVIS AFB     SUNNY     63  60  90 SW13      30.02R
$$
CAZ019>021-271600-
SAN JOAQUIN VALLEY

CITY           SKY/WX    TMP DP  RH WIND       PRES   REMARKS
STOCKTON       SUNNY     67  56  67 NW3       30.02R
MODESTO        SUNNY     69  54  58 NW6       30.02R
MERCED         SUNNY     68  56  65 NW6       30.02R
LEMOORE        SUNNY     68  48  48 NW6       30.03R
FRESNO         SUNNY     72  55  55 CALM      30.03R
HANFORD        SUNNY     69  55  60 NW8       30.03R
PORTERVILLE    SUNNY     66  48  52 SW3       30.04R
BAKERSFIELD    SUNNY     76  46  34 CALM      30.04R
$$
CAZ011-012-071-271600-
NORTHERN MOUNTAINS

CITY           SKY/WX    TMP DP  RH WIND       PRES   REMARKS
YREKA          SUNNY     63  38  39 CALM      30.14R
MOUNT SHASTA   SUNNY     59  44  57 CALM      30.18R
ALTURAS        SUNNY     55  32  41 CALM      30.23R
$$
CAZ011-012-071-271600-
SIERRA NEVADA MTNS

CITY           SKY/WX    TMP DP  RH WIND       PRES   REMARKS
BLUE CANYON    SUNNY     63  41  44 CALM      30.28R
TAHOE VLY ARPT SUNNY     48  36  63 S3        30.34R
MAMMOTH LAKES  FAIR      50  30  46 CALM      30.38S
$$




USA.gov is the U.S. government's official web portal to all federal, state and local government web resources and services.